Tracking 25193 objects as of 18-Jan-2022
HD Live streaming from Space Station
objects crossing your sky now

JILIN-01 GAOFEN 3G

Track JILIN-01 GAOFEN 3G now!
10-day predictions


NORAD ID: 46459
Int'l Code: 2020-065F
Perigee: 531.2 km
Apogee: 553.8 km
Inclination: 97.5 °
Period: 95.3 minutes
Semi major axis: 6913 km
RCS: Unknown
Launch date: September 15, 2020
Source: People's Republic of China (PRC)
Launch site: Yellow Sea Launch Area, China (YSLA)
aabbcc
Your satellite tracking list
Your tracking list is empty




NASA's NSSDC Master Catalog

Two Line Element Set (TLE):
1 46459U 20065F   22018.24286464  .00001974  00000-0  12407-3 0  9998
2 46459  97.4766  74.9822 0016367  53.5658  31.8861 15.10281248 73960
Source of the keplerian elements: AFSPC